[[{"header":{"parameterUnit":"m.s-1","parameterCategory":1,"la1":30.2991,"la2":30.254,"lo1":-89.0895,"lo2":-89.0444,"dy":0.0017,"dx":0.0017,"nx":28,"ny":28,"refTime":"2025-09-17T09:00:00:Z","depth":0,"parameterNumber":2,"parameterNumberName":"U-component_of_WINDS"},"data":[0,0,0,0,0,0,0,0,0,0,0,0,0,0,0,0,0,0,0,0,0,0,0,0,0,0,0,0,0,0,0,0,0,0,0,0,0,0,0,0,0,0,0,0,0,0,0,0,0,0,0,0,0,0,0,0,0,0,-1.0428,-1.0428,0,-1.0387,-1.0386,-1.0386,-1.0312,-1.031,-1.0309,-1.0308,-1.0267,-1.0267,-1.0267,0,0,0,0,0,0,0,0,0,0,0,0,0,-1.0445,-1.0445,-1.0428,-1.0428,-1.0427,-1.0387,-1.0386,-1.0386,-1.0312,-1.031,-1.0309,-1.0307,-1.0267,-1.0267,-1.0268,0,0,0,0,0,0,0,0,0,0,0,0,0,-1.0424,-1.0445,-1.0428,-1.0386,-1.0381,-1.0387,-1.0386,-1.0386,-1.0313,-1.031,-1.0308,-1.0306,-1.0267,-1.0267,-1.0268,-1.0312,0,0,-1.0269,-1.0269,0,0,0,0,0,0,0,0,-1.0426,-1.0424,-1.0392,-1.0389,-1.0384,-1.0352,-1.0377,-1.0361,-1.0313,-1.0339,-1.0308,-1.0305,-1.0297,-1.0295,-1.0292,-1.031,-1.0308,-1.0269,-1.0269,-1.0269,-1.0269,0,0,0,0,0,0,0,-1.0427,-1.0425,-1.0412,-1.0392,-1.0387,-1.0369,-1.0364,-1.0374,-1.033,-1.0336,-1.0331,-1.0327,-1.0294,-1.0292,-1.029,-1.0308,-1.0269,-1.0269,-1.0269,-1.0269,-1.0361,-1.0363,0,0,0,0,0,0,-1.0435,-1.0427,-1.0413,-1.0411,-1.04,-1.037,-1.0364,-1.0365,-1.033,-1.0323,-1.0329,-1.0324,-1.0292,-1.029,-1.0289,-1.0339,-1.0269,-1.0269,-1.027,-1.0358,-1.0361,-1.0364,0,0,0,0,0,0,-1.0435,-1.0434,-1.0415,-1.0417,-1.0413,-1.0372,-1.0373,-1.0365,-1.0362,-1.0324,-1.0316,-1.0334,-1.029,-1.0288,-1.0307,-1.0336,-1.0269,-1.027,-1.0356,-1.0359,-1.0362,-1.0439,0,0,0,0,0,0,-1.0436,-1.0435,-1.0451,-1.0418,-1.0414,-1.0433,-1.0375,-1.0366,-1.0363,-1.0356,-1.0327,-1.032,-1.0289,-1.0307,-1.0307,-1.0335,-1.027,-1.0353,-1.0357,-1.0361,-1.0434,-1.0445,-1.0454,0,0,0,0,0,-1.0437,-1.0475,-1.0452,-1.0451,-1.0433,-1.0435,-1.0433,-1.0395,-1.0365,-1.0381,-1.0357,-1.0321,-1.0333,-1.0309,-1.0309,-1.0338,-1.0351,-1.0356,-1.0361,-1.0429,-1.0443,-1.0454,0,0,0,0,0,0,-1.0513,-1.047,-1.0444,-1.0472,-1.0458,-1.0423,-1.0442,-1.041,-1.0405,-1.0398,-1.0352,-1.0346,-1.0371,-1.0356,-1.0331,-1.0379,-1.0336,-1.0342,-1.0388,-1.0401,-1.041,-1.0414,-1.027,0,0,0,0,0,-1.0533,-1.0538,-1.05,-1.0528,-1.0522,-1.0484,-1.0483,-1.0455,-1.0439,-1.0433,-1.041,-1.0396,-1.0396,-1.0397,-1.0396,-1.0431,-1.0424,-1.0451,-1.0461,-1.047,-1.0475,-1.0493,-1.0505,-1.038,-1.038,-1.038,0,0,-1.0574,-1.0551,-1.0557,-1.0543,-1.0528,-1.0535,-1.0479,-1.0489,-1.0493,-1.0434,-1.045,-1.0433,-1.0414,-1.0442,-1.0452,-1.043,-1.0508,-1.0476,-1.0483,-1.0484,-1.0499,-1.0511,-1.0522,-1.0383,-1.0383,-1.0382,0,0,-1.0653,-1.0636,-1.0657,-1.0644,-1.0623,-1.0597,-1.0602,-1.0572,-1.0558,-1.0573,-1.0529,-1.0534,-1.0536,-1.0524,-1.0519,-1.0593,-1.056,-1.0594,-1.0647,-1.0665,-1.0675,-1.0683,-1.071,-1.072,-1.0599,-1.0599,-1.0599,0,-1.0707,-1.0715,-1.0673,-1.0685,-1.0681,-1.0627,-1.0649,-1.0638,-1.0618,-1.0616,-1.0591,-1.0592,-1.0575,-1.0599,-1.0617,-1.0614,-1.0619,-1.0597,-1.0676,-1.0685,-1.0692,-1.0717,-1.0727,-1.0603,-1.0603,-1.0602,-1.0602,0,-1.0783,-1.0789,-1.0809,-1.0791,-1.0788,-1.0805,-1.0766,-1.0769,-1.0741,-1.0718,-1.0735,-1.0713,-1.0706,-1.0709,-1.0683,-1.073,-1.0716,-1.0685,-1.0641,-1.0709,-1.0732,-1.0741,-1.061,-1.0608,-1.0607,-1.0606,0,0,-1.0909,-1.0866,-1.0875,-1.0865,-1.0838,-1.0842,-1.0857,-1.0849,-1.0853,-1.084,-1.0852,-1.0855,-1.0825,-1.0819,-1.079,-1.0806,-1.0867,-1.0772,-1.0771,-1.0791,-1.0918,-1.0943,-1.0955,-1.0844,-1.0846,-1.0847,-1.092,0,-1.0983,-1.1005,-1.0968,-1.0999,-1.1005,-1.0953,-1.0966,-1.0951,-1.093,-1.0932,-1.0908,-1.0911,-1.0871,-1.0867,-1.0881,-1.0857,-1.0892,-1.0851,-1.0856,-1.0856,-1.0863,-1.0966,-1.0992,-1.1062,-1.0928,-1.093,-1.0931,0,-1.1071,-1.1063,-1.1095,-1.1065,-1.1066,-1.1079,-1.1069,-1.1071,-1.1053,-1.1036,-1.1029,-1.0995,-1.1008,-1.0965,-1.0983,-1.0956,-1.0955,-1.0944,-1.0946,-1.0945,-1.0898,-1.097,-1.1083,-1.1094,-1.0945,-1.0943,-1.0942,0,-1.1161,-1.1158,-1.1176,-1.117,-1.1136,-1.1146,-1.1132,-1.1111,-1.1109,-1.1101,-1.1099,-1.1093,-1.109,-1.1085,-1.1051,-1.1023,-1.1073,-1.1027,-1.106,-1.1061,-1.1074,-1.1074,-1.119,-1.1073,-1.1072,-1.1072,-1.1072,0,-1.1248,-1.1269,-1.1216,-1.1228,-1.1251,-1.1207,-1.1232,-1.1213,-1.1195,-1.1202,-1.1158,-1.1166,-1.1119,-1.1122,-1.1095,-1.1114,-1.1113,-1.11,-1.1093,-1.1105,-1.1107,-1.1105,-1.1099,-1.1075,-1.1074,-1.1074,-1.1073,0,-1.1352,-1.1317,-1.1334,-1.13,-1.1292,-1.1311,-1.1281,-1.1291,-1.1267,-1.1277,-1.1277,-1.1238,-1.124,-1.1205,-1.1199,-1.1181,-1.1212,-1.1196,-1.1218,-1.1213,-1.1249,-1.1247,-1.1369,-1.1383,-1.1256,-1.1257,-1.1258,0,-1.141,-1.1425,-1.1393,-1.1394,-1.1382,-1.1385,-1.1383,-1.1341,-1.134,-1.1321,-1.1333,-1.133,-1.1326,-1.1331,-1.1303,-1.1299,-1.1282,-1.1325,-1.1282,-1.1293,-1.1284,-1.1284,-1.1285,-1.1335,-1.1337,-1.1338,-1.1339,0,-1.1517,-1.1498,-1.1496,-1.1488,-1.1486,-1.1478,-1.1467,-1.1471,-1.1425,-1.1426,-1.1427,-1.1424,-1.1418,-1.1416,-1.1406,-1.1393,-1.1359,-1.1353,-1.136,-1.1373,-1.1386,-1.138,-1.1244,-1.1351,-1.1349,-1.1349,-1.1348,-1.1347,-1.16,-1.1611,-1.159,-1.1589,-1.1576,-1.1567,-1.1574,-1.155,-1.155,-1.1541,-1.1516,-1.1521,-1.1503,-1.1486,-1.1475,-1.1479,-1.1458,-1.1469,-1.1471,-1.1475,-1.1482,-1.1385,-1.1477,-1.1476,-1.1476,-1.1476,-1.1475,0,-1.1705,-1.1689,-1.1688,-1.1674,-1.1673,-1.164,-1.1626,-1.1628,-1.1633,-1.1618,-1.1614,-1.1615,-1.1613,-1.1585,-1.158,-1.1588,-1.1573,-1.1588,-1.1588,-1.1585,-1.1501,-1.1495,-1.1601,-1.1601,-1.1601,-1.1601,-1.1601,-1.1601,-1.176,-1.1778,-1.1757,-1.1768,-1.1751,-1.1755,-1.175,-1.1741,-1.1729,-1.1732,-1.173,-1.1711,-1.1691,-1.1684,-1.1681,-1.1672,-1.1673,-1.1694,-1.1681,-1.1603,-1.1591,-1.158,-1.1574,-1.1695,-1.1695,-1.1765,-1.1766,-1.1766]},{"header":{"parameterUnit":"m.s-1","parameterCategory":1,"la1":30.2991,"la2":30.254,"lo1":-89.0895,"lo2":-89.0444,"dy":0.0017,"dx":0.0017,"nx":28,"ny":28,"refTime":"2025-09-17T09:00:00:Z","depth":0,"parameterNumber":3,"parameterNumberName":"V-component_of_WINDS"},"data":[0,0,0,0,0,0,0,0,0,0,0,0,0,0,0,0,0,0,0,0,0,0,0,0,0,0,0,0,0,0,0,0,0,0,0,0,0,0,0,0,0,0,0,0,0,0,0,0,0,0,0,0,0,0,0,0,0,0,2.7134,2.7134,0,2.7154,2.7154,2.7154,2.7137,2.7136,2.7135,2.7135,2.7152,2.7153,2.7154,0,0,0,0,0,0,0,0,0,0,0,0,0,2.7079,2.708,2.7134,2.7134,2.7134,2.7154,2.7154,2.7154,2.7137,2.7136,2.7135,2.7134,2.7152,2.7153,2.7154,0,0,0,0,0,0,0,0,0,0,0,0,0,2.7101,2.7081,2.7134,2.7128,2.7128,2.7154,2.7154,2.7154,2.7137,2.7136,2.7135,2.7134,2.7151,2.7153,2.7155,2.7186,0,0,2.716,2.716,0,0,0,0,0,0,0,0,2.71,2.7103,2.7129,2.7129,2.7128,2.7142,2.7141,2.7165,2.7137,2.7133,2.7135,2.7133,2.7149,2.7151,2.7157,2.7187,2.7188,2.716,2.7161,2.7162,2.7162,0,0,0,0,0,0,0,2.7098,2.7102,2.7142,2.7129,2.7129,2.7124,2.7126,2.7145,2.7147,2.7134,2.7132,2.7135,2.7149,2.7155,2.7157,2.7188,2.716,2.7161,2.7162,2.7163,2.7243,2.7244,0,0,0,0,0,0,2.7098,2.7101,2.7141,2.7142,2.7111,2.7126,2.7128,2.7138,2.7147,2.7147,2.7136,2.7134,2.7153,2.7155,2.7158,2.7194,2.7162,2.7163,2.7164,2.7242,2.7244,2.7245,0,0,0,0,0,0,2.7097,2.7102,2.714,2.7121,2.7126,2.7128,2.714,2.7139,2.7146,2.7149,2.7148,2.7142,2.7152,2.7155,2.7179,2.7194,2.7164,2.7165,2.7241,2.7243,2.7244,2.7267,0,0,0,0,0,0,2.7095,2.7101,2.7114,2.7122,2.7127,2.7162,2.7141,2.714,2.7149,2.7147,2.7155,2.7155,2.7152,2.7177,2.7181,2.7196,2.7167,2.724,2.7242,2.7244,2.7265,2.7269,2.7273,0,0,0,0,0,2.7093,2.7119,2.7115,2.7119,2.7143,2.7163,2.7166,2.7162,2.715,2.7162,2.7164,2.7154,2.7193,2.7179,2.7184,2.72,2.7239,2.7241,2.7244,2.7263,2.7269,2.7273,0,0,0,0,0,0,2.7112,2.712,2.7115,2.7144,2.7153,2.716,2.7175,2.7168,2.718,2.7177,2.7172,2.7174,2.7199,2.7202,2.7187,2.723,2.7213,2.7217,2.7227,2.7232,2.7236,2.7234,2.7168,0,0,0,0,0,2.712,2.7136,2.7142,2.7167,2.7172,2.7173,2.7182,2.7178,2.7187,2.719,2.7194,2.7202,2.7215,2.7224,2.7237,2.7266,2.7267,2.7279,2.7284,2.7287,2.7289,2.7304,2.7309,2.7253,2.7253,2.7253,0,0,2.7135,2.7142,2.7152,2.7171,2.7178,2.7194,2.7176,2.7194,2.7205,2.7193,2.7215,2.7218,2.7226,2.7253,2.7264,2.7256,2.7305,2.729,2.7293,2.7293,2.7307,2.7312,2.7317,2.7255,2.7255,2.7254,0,0,2.7171,2.7179,2.72,2.7207,2.7217,2.7218,2.7223,2.7231,2.7233,2.7255,2.7246,2.7259,2.7283,2.7289,2.7295,2.7335,2.7326,2.7339,2.736,2.7374,2.7378,2.7382,2.7394,2.7399,2.7342,2.7342,2.7342,0,2.7189,2.7213,2.7212,2.723,2.7238,2.7229,2.7249,2.7256,2.727,2.7275,2.7266,2.7296,2.7301,2.7327,2.7337,2.7343,2.7348,2.7337,2.7378,2.7382,2.7385,2.7397,2.7402,2.7343,2.7343,2.7343,2.7343,0,2.7234,2.7251,2.7267,2.7281,2.7291,2.7311,2.7311,2.7321,2.7318,2.7319,2.7341,2.7348,2.7361,2.7368,2.7364,2.7394,2.7388,2.7379,2.7361,2.7392,2.7402,2.7407,2.7346,2.7345,2.7345,2.7344,0,0,2.728,2.7294,2.7299,2.7305,2.7316,2.7329,2.7348,2.7362,2.737,2.7381,2.7395,2.7416,2.7407,2.7414,2.7412,2.7424,2.7453,2.7413,2.7413,2.7419,2.7484,2.749,2.7495,2.7448,2.7449,2.745,2.7483,0,2.7315,2.7349,2.7348,2.7379,2.7394,2.7386,2.7402,2.741,2.7412,2.7424,2.7426,2.744,2.7429,2.7433,2.7445,2.7447,2.7466,2.7445,2.746,2.7461,2.7456,2.7501,2.7507,2.7538,2.7487,2.7488,2.7489,0,2.736,2.7373,2.7405,2.7413,2.742,2.7435,2.7447,2.746,2.7468,2.7469,2.7477,2.7472,2.749,2.7475,2.7499,2.7484,2.7491,2.7493,2.7494,2.7493,2.7475,2.75,2.7548,2.7552,2.7496,2.7495,2.7495,0,2.7389,2.7413,2.7436,2.7441,2.7452,2.7462,2.7467,2.7475,2.7484,2.7494,2.7499,2.7512,2.7519,2.7528,2.7526,2.7515,2.7551,2.7535,2.755,2.755,2.7556,2.7555,2.7604,2.7564,2.7564,2.7564,2.7564,0,2.7427,2.7446,2.7448,2.7462,2.7483,2.7482,2.7503,2.7507,2.7514,2.7527,2.7522,2.7534,2.7532,2.7544,2.7543,2.7563,2.7566,2.7566,2.7565,2.7565,2.7565,2.7568,2.7565,2.7565,2.7565,2.7564,2.7564,0,2.7461,2.7463,2.7487,2.7496,2.7498,2.7514,2.7521,2.7533,2.7535,2.7552,2.7556,2.7558,2.7572,2.7572,2.7588,2.7588,2.7611,2.7608,2.7608,2.7606,2.7621,2.7619,2.7671,2.7677,2.7635,2.7636,2.7636,0,2.7484,2.7499,2.7509,2.7518,2.7524,2.7539,2.7547,2.7547,2.7556,2.7567,2.7578,2.7592,2.7602,2.7625,2.7628,2.764,2.7636,2.7654,2.7638,2.7638,2.7634,2.7633,2.7633,2.7656,2.7657,2.7657,2.7658,0,2.7524,2.7524,2.7537,2.7551,2.7562,2.7572,2.7582,2.7589,2.759,2.76,2.7615,2.7623,2.764,2.7653,2.7665,2.7669,2.7663,2.7663,2.7667,2.7666,2.7664,2.7664,2.7614,2.7661,2.7661,2.7661,2.766,2.766,2.7552,2.7564,2.7574,2.7588,2.7596,2.7605,2.7617,2.7621,2.7633,2.7647,2.7646,2.7662,2.767,2.7685,2.7691,2.7702,2.7696,2.7702,2.7703,2.7704,2.7705,2.7664,2.7705,2.7705,2.7705,2.7705,2.7705,0,2.7589,2.7595,2.7609,2.7623,2.7634,2.763,2.764,2.7649,2.7664,2.7672,2.7683,2.77,2.7713,2.7717,2.7729,2.7738,2.7735,2.7741,2.7739,2.774,2.7711,2.7705,2.7743,2.7743,2.7743,2.7743,2.7743,2.7743,2.761,2.7631,2.7633,2.7657,2.7662,2.7679,2.7685,2.7693,2.77,2.7719,2.773,2.7733,2.7739,2.7752,2.7763,2.7764,2.7768,2.7775,2.7774,2.7746,2.7742,2.7738,2.7733,2.7776,2.7776,2.7802,2.7802,2.7802]}]]